sat.trackr.live / text

‹ back to catalog

ONEWEB-0122

NORAD 47268 · 2020-100L

PAYLOAD ACTIVE UNKNOWN

§ Identity

Operator
Country
UK
Launch date
2020-12-18
Launch site
VOSTO
Launch vehicle
Mass (kg)
RCS (m²)

Purposes: comms

External: N2YO · Heavens-Above · Gunter

§ Orbital elements

Epoch: 2026-09-19T12:23:39.399072Z

Period
109.72 min
Inclination
87.8979°
Eccentricity
0.0001766
Mean motion
13.12441139 rev/d
Perigee alt
1,212.4 km
Apogee alt
1,215.1 km
Semi-major
7,591.9 km
B*
-3.2794e-4
RAAN
331.9378°
Arg perigee
95.5429°
Mean anomaly
264.5901°
Rev number
27,692

§ Raw data

ONEWEB-01221 47268U 20100L   26262.51642823 -.00000105  00000+0 -32794-3 0  99942 47268  87.8979 331.9378 0001766  95.5429 264.5901 13.12441139276927

JSON: /api/v1/satellites/47268 · /tle

For live sub-satellite position, see the globe view (requires WebGL).

§ Visibility from observer

Set your observer location to see the next 7 days of passes ≥ 10°. The values pass through the URL so the page stays shareable.

No JS? Fill the form by hand. The geolocation button needs JavaScript.